Location: Mottisfont
(51.0333°N, 1.5333°W)
Time: 17:14:54
(UTC+00:00)

Daily predictions for brighter satellites

Satellite Brightness Start Highest point End
(mag) Time Altitude Azimuth Time Altitude Azimuth Time Altitude Azimuth
Lacrosse 5 2.0 17:27:44 10° WNW 17:32:47 63° NNE 17:37:49 10° ESE
CSL-04 Rocket 4.2 17:28:45 10° SE 17:33:48 38° ENE 17:38:48 10° N
Unknown 3.7 17:30:51 10° WSW 17:35:00 83° NNW 17:39:10 10° ENE
Cosmos 1470 3.3 17:31:08 10° SSW 17:35:05 65° WNW 17:39:04 10° N
Cosmos 2263 Rocket 3.8 17:30:35 10° WSW 17:35:38 32° NW 17:40:40 10° NNE
H-2A R/B 4.1 17:35:42 10° NE 17:36:38 10° NE 17:37:34 10° NE
Unknown 3.7 17:32:33 10° WSW 17:36:43 82° NNW 17:40:52 10° ENE
Cosmos 1726 Rocket 3.6 17:33:46 10° S 17:38:04 58° E 17:42:21 10° NNE
Envisat 3.1 17:33:15 10° SSE 17:38:14 58° ENE 17:43:14 10° N
Unknown 3.7 17:34:13 10° WSW 17:38:22 81° NNW 17:42:32 10° ENE
Shenzhou-11 Module 4.3 17:36:40 10° SW 17:38:23 15° S 17:40:06 10° SE
Cosmos 921 Rocket 3.2 17:35:27 10° S 17:39:51 57° ESE 17:44:14 10° NNE
Lacrosse 5 rocket 4.1 17:37:30 10° W 17:39:59 17° SW 17:42:33 10° S
Unknown 3.7 17:35:53 10° WSW 17:40:03 80° NNW 17:44:13 10° ENE
Unknown 3.2 17:39:32 10° WNW 17:43:03 76° NNE 17:46:35 10° E
Unknown 3.7 17:39:14 10° W 17:43:23 79° NNW 17:47:33 10° ENE
Unknown 4.0 17:40:35 10° WNW 17:43:33 43° SSW 17:46:34 10° SE
Unknown 3.7 17:40:57 10° W 17:45:06 78° NNW 17:49:16 10° ENE
Falcon 9 debris 3.1 17:42:28 10° WNW 17:45:56 86° NNE 17:49:23 10° ESE
Cosmos 1356 3.9 17:43:05 10° SSE 17:46:17 37° E 17:49:31 10° NNE
Unknown 3.7 17:42:32 10° W 17:46:42 77° NNW 17:50:49 10° ENE
Meteor 2-10 4.2 17:42:41 10° SSE 17:47:27 44° E 17:52:13 10° NNE
Cosmos 1328 3.8 17:44:15 10° N 17:48:13 60° ENE 17:52:07 10° SSE
Unknown 3.7 17:44:10 10° W 17:48:19 77° NNW 17:52:23 11° ENE
Cosmos 1833 Rocket 2.8 17:43:22 10° NNW 17:48:55 55° NE 17:54:25 10° SE
SWAS 4.4 17:44:50 10° SSW 17:49:07 82° ESE 17:53:26 10° NNE
Unknown 3.7 17:45:26 10° W 17:49:36 76° NNW 17:53:38 11° ENE
Unknown 3.7 17:47:20 10° W 17:51:29 77° NNW 17:55:26 11° ENE
Cosmos 1271 Rocket 3.9 17:50:51 10° NNW 17:54:44 51° W 17:58:36 10° S
Unknown 3.7 17:50:42 10° W 17:54:50 76° NNW 17:58:39 12° ENE
Unknown 3.6 17:52:04 10° W 17:55:52 63° N 17:59:13 13° E
YAOGAN 6 2.7 17:52:57 10° SSE 17:56:29 50° ENE 18:00:01 10° N
Unknown 3.7 17:52:21 10° W 17:56:30 75° NNW 18:00:14 13° ENE
Cosmos 1939 Rocket 3.9 17:53:52 10° ESE 17:57:12 26° ENE 18:00:36 10° N
Unknown 3.7 17:54:14 10° W 17:58:23 73° NNW 18:02:03 13° ENE
Unknown 3.7 17:55:41 10° W 17:59:49 74° NNW 18:03:26 13° ENE
Cosmos 2058 Rocket 3.0 17:57:04 10° S 18:01:22 66° E 18:05:43 10° NNE
Unknown 3.7 17:57:19 10° W 18:01:28 73° N 18:05:00 14° ENE
USA 238 DEB 4.5 17:56:02 10° S 18:01:40 30° ESE 18:07:27 10° ENE
USA 238 4.5 17:56:11 10° S 18:01:47 29° ESE 18:07:33 10° ENE
Unknown 3.7 18:00:42 10° W 18:04:51 72° N 18:08:15 15° ENE
Unknown 3.2 18:01:33 10° WNW 18:05:05 87° SSW 18:08:00 14° ESE
COBE Rocket 4.0 18:01:01 10° NNE 18:06:12 71° E 18:11:16 10° S
Unknown 3.7 18:02:20 10° W 18:06:30 72° N 18:09:49 15° ENE
Unknown 3.7 18:04:02 10° W 18:08:10 71° N 18:11:26 16° ENE
CZ-2D R/B 3.9 18:05:30 10° SE 18:09:00 34° ENE 18:12:33 10° N
SJ 16-02 3.0 18:06:16 10° N 18:09:09 17° NE 18:10:33 15° ENE
Unknown 3.7 18:05:41 10° W 18:09:49 71° N 18:13:01 17° ENE
Cosmos 1300 4.1 18:07:14 10° SE 18:09:55 19° E 18:12:37 10° NE
Cosmos 1461 2.8 18:08:32 10° NW 18:12:37 90° NNE 18:16:49 10° SE
Unknown 3.7 18:09:05 10° W 18:13:13 70° N 18:16:16 18° ENE
COSMO-SKYMED 1 2.6 18:09:19 10° NNE 18:13:39 62° ESE 18:17:57 10° S
Unknown 3.6 18:09:49 10° W 18:13:41 64° N 18:16:22 19° E
Unknown 3.8 18:10:14 10° W 18:14:22 69° N 18:17:22 18° ENE
Unknown 3.8 18:10:54 10° W 18:15:03 68° N 18:18:00 18° ENE
Unknown 3.7 18:11:14 10° W 18:15:16 65° N 18:18:05 19° ENE
Unknown 3.8 18:12:35 10° W 18:16:44 68° N 18:19:37 19° ENE
Cosmos 1339 Rocket 4.5 18:11:04 10° S 18:17:01 58° E 18:23:04 10° NNE
Cosmos 2082 Rocket 2.2 18:11:56 10° NNW 18:17:39 63° NE 18:23:17 10° SE
Okean-O 4.0 18:14:23 10° S 18:18:35 42° W 18:22:50 10° NNW
Unknown 3.7 18:14:48 10° W 18:18:52 67° N 18:21:37 20° ENE
Unknown 3.8 18:15:44 10° W 18:19:52 68° N 18:22:39 20° ENE
CSL-04 Debris 4.1 18:15:14 10° SSE 18:20:41 81° ENE 18:26:13 10° NNW
Ariane Rocket 3.3 18:16:07 10° SE 18:20:55 44° ENE 18:25:46 10° N
Unknown 3.8 18:19:02 10° W 18:23:10 67° N 18:25:48 21° ENE
Cosmos 2084 Rocket 3.5 18:20:06 10° NW 18:24:32 63° NE 18:27:38 19° ESE
Unknown 3.8 18:20:43 10° W 18:24:51 67° N 18:27:25 22° ENE
ATLAS CENTAUR R/B 3.6 18:21:58 10° NNW 18:24:57 16° N 18:27:18 12° NE
NOSS 3-2 (A) 4.1 18:20:20 10° S 18:25:24 32° ESE 18:29:49 15° ENE
CZ-4 R/B 1.7 18:21:50 10° S 18:26:02 75° WSW 18:30:17 10° NNW
Unknown 3.8 18:22:22 10° W 18:26:30 67° N 18:28:59 23° ENE
Cosmos 1703 3.9 18:22:41 10° NNW 18:26:35 59° W 18:30:25 10° S
Unknown 3.8 18:24:02 10° W 18:28:10 67° N 18:30:36 24° ENE
Cosmos 1605 Rocket 4.0 18:22:17 10° N 18:28:32 89° W 18:34:39 10° S
NOSS 3-3 (A) 4.5 18:23:35 10° NW 18:30:56 81° NE 18:39:05 10° SE
NOSS 3-3 (C) 4.5 18:23:41 10° NW 18:31:02 81° NE 18:39:08 10° SE
Cosmos 1844 Rocket 3.8 18:26:12 10° WSW 18:31:36 44° NW 18:36:59 10° NNE
HJ-1C 4.0 18:32:27 29° E 18:33:16 34° ENE 18:36:22 10° N
Cosmos 292 Rocket 3.9 18:29:45 10° SSW 18:34:30 74° WNW 18:39:17 10° NNE
Cosmos 1937 Rocket 4.3 18:30:05 10° N 18:34:39 31° NE 18:36:31 24° E
Unknown 3.8 18:30:41 10° W 18:34:49 66° N 18:36:58 27° ENE
Unknown 3.8 18:32:24 10° W 18:36:32 66° N 18:38:36 28° ENE
Okean 3 Rocket 4.4 18:33:55 10° N 18:37:58 30° ENE 18:38:58 27° E
Unknown 3.8 18:34:00 10° W 18:38:08 66° N 18:40:08 29° ENE
Unknown 3.8 18:35:42 10° W 18:39:49 65° N 18:41:45 30° ENE
Resurs 01 Rocket 3.7 18:42:28 12° NE 18:42:28 12° NE 18:43:27 10° NNE
Unknown 3.8 18:37:21 10° W 18:41:29 65° N 18:43:21 31° ENE
In-Cosmos 22 Rocket 4.4 18:37:27 10° N 18:42:39 46° ENE 18:46:48 16° SE
Cosmos 1727 Rocket 3.9 18:36:47 10° S 18:42:51 63° E 18:48:58 10° NNE
Unknown 3.8 18:40:42 10° W 18:44:49 65° N 18:46:33 33° ENE
Starlink (trailer) 3.8 18:42:21 10° W 18:46:28 65° N 18:48:08 34° ENE
Cosmos 2173 Rocket 4.1 18:40:38 10° N 18:46:48 54° ENE 18:52:49 10° SSE
Cosmos 1076 Rocket 3.4 18:43:10 10° N 18:47:33 69° ENE 18:51:53 10° SSE
Unknown 3.8 18:44:02 10° W 18:48:10 65° N 18:49:44 35° ENE
Unknown 3.8 18:45:42 10° W 18:49:50 65° N 18:51:21 36° ENE
NOSS 3-2 (C) 4.1 18:45:28 10° S 18:50:31 31° ESE 18:51:57 28° E
Cosmos 1908 3.9 18:47:29 10° SSW 18:51:20 57° WNW 18:55:11 10° N
SJ-6B 4.1 18:52:53 23° NE 18:52:53 23° NE 18:54:59 10° N
Cosmos 1802 Rocket 4.2 18:46:06 10° N 18:52:22 50° ENE 18:57:43 14° SE
ADEOS Rocket 4.1 18:46:33 10° NNE 18:53:09 30° E 18:59:20 10° SSE
ATLAS 5 CENTAUR R/B 3.4 18:49:23 10° W 18:53:25 29° NNW 18:57:39 11° NE
ASTEX 1 4.5 18:50:54 10° N 18:55:39 47° WNW 19:00:24 10° SSW
Cosmos 1812 Rocket 3.4 18:51:19 10° S 18:55:43 73° E 19:00:11 10° NNE
Unknown 3.7 18:51:43 10° W 18:55:51 65° N 18:57:05 41° ENE
Unknown 3.8 18:52:21 10° W 18:56:29 65° N 18:57:43 42° ENE
Unknown 3.8 18:53:49 10° W 18:57:58 65° N 18:59:09 43° ENE
EO 1 Delta rocket 4.5 18:53:47 10° S 18:58:20 59° W 19:03:27 10° NNW
SPOT 3 Rocket 4.0 18:57:17 34° E 18:58:29 39° ENE 19:03:18 10° N
Cosmos 1726 4.1 18:56:22 10° SW 18:59:37 30° WNW 19:02:54 10° N
Unknown 3.8 18:55:37 10° W 18:59:47 66° N 19:00:54 45° ENE
Abrixas rocket 2.9 18:57:27 10° WSW 18:59:58 37° S 18:59:58 37° S
Cosmos 2278 Rocket 2.2 18:55:03 10° SSW 19:00:44 84° WNW 19:06:28 10° NNE
Unknown 4.3 18:58:03 10° W 19:01:13 35° SSW 19:02:09 29° S
SL-27 R/B 4.4 18:58:44 10° N 18:59:51 16° NNE 18:59:51 16° NNE
Unknown 3.7 18:57:23 10° W 19:01:31 65° N 19:02:32 47° ENE
Unknown 3.7 18:59:09 10° W 19:03:17 66° N 19:04:14 48° ENE
Cosmos 2297 4.1 18:58:18 10° S 19:03:32 39° ESE 19:04:47 35° E
YAOGAN 1 4.0 19:01:39 10° SSW 19:05:43 40° W 19:09:49 10° NNW
Unknown 3.2 19:02:12 10° WNW 19:05:57 83° SSW 19:06:23 67° SE
Unknown 3.7 19:02:29 10° W 19:06:37 66° N 19:07:25 52° ENE
Unknown 3.7 19:02:37 10° W 19:06:46 66° N 19:07:33 52° ENE
Cosmos 2058 2.8 19:02:37 10° N 19:06:53 80° E 19:08:58 29° SSE
FALCON 9 DEB 4.2 19:03:39 10° W 19:06:55 38° SSW 19:07:36 34° S
Unknown 3.7 19:04:02 10° W 19:08:10 66° N 19:08:54 53° ENE
Cosmos 1725 Rocket 4.3 19:02:14 10° N 19:08:15 45° ENE 19:10:07 36° ESE
Cosmos 1000 Rocket 4.5 19:03:55 10° SSE 19:09:56 56° E 19:16:03 10° NNE
Unknown 3.7 19:07:15 10° W 19:11:24 66° N 19:12:00 57° NE
Cosmos 2151 3.4 19:08:05 10° N 19:11:41 44° NE 19:11:41 44° NE
Cosmos 2100 Rocket 3.9 19:06:29 10° N 19:12:43 84° E 19:18:52 10° S
H-2A R/B 2.4 19:14:06 44° E 19:14:47 46° ENE 19:19:58 10° N
Unknown 3.6 19:10:40 10° WNW 19:14:48 67° N 19:15:16 61° NE
Lacrosse 5 2.8 19:10:53 10° WNW 19:15:41 44° SW 19:18:16 24° SSE
Unknown 3.6 19:12:22 10° WNW 19:16:31 67° N 19:16:54 63° NE
Unknown 3.6 19:14:02 10° WNW 19:18:11 68° N 19:18:30 64° NE
Unknown 3.6 19:15:43 10° WNW 19:19:51 68° N 19:20:06 66° NNE
Unknown 4.3 19:16:54 10° W 19:20:10 36° SSW 19:20:17 36° SSW
ATLAS 3B R/B 3.2 19:14:33 10° S 19:19:45 35° SE 19:19:45 35° SE
Unknown 3.6 19:19:03 10° WNW 19:23:12 69° N 19:23:18 68° NNE
Cosmos 1892 3.9 19:19:28 10° N 19:21:41 32° N 19:21:41 32° N
Cosmos 1898 Rocket 3.4 19:18:27 10° NNW 19:23:45 87° ENE 19:25:34 43° SSE
ARGOS 3.3 19:23:53 50° E 19:24:15 51° ENE 19:29:31 10° N
Unknown 3.6 19:20:46 10° WNW 19:24:56 69° N 19:24:57 69° NNE
Unknown 3.6 19:22:21 10° WNW 19:26:29 69° N 19:26:29 69° N
MOS 1 4.2 19:22:30 19° SSE 19:26:45 86° WSW 19:32:27 10° NNW
Unknown 3.7 19:23:59 10° WNW 19:28:02 69° N 19:28:02 69° N
CENTAUR R/B 3.0 19:23:44 10° S 19:28:05 37° SE 19:28:05 37° SE
Unknown 3.7 19:25:18 10° WNW 19:29:19 69° N 19:29:19 69° N
Unknown 3.8 19:27:10 10° WNW 19:31:05 67° NNW 19:31:05 67° NNW
Cosmos 2016 Rocket 3.9 19:25:05 10° N 19:31:24 76° E 19:34:31 32° SSE
Cosmos 1939 Rocket 4.3 19:28:15 10° SSW 19:31:59 37° W 19:35:48 10° NNW
Cosmos 1833 Rocket 4.4 19:27:44 10° NW 19:32:34 30° WSW 19:37:24 10° SSW
Unknown 3.9 19:30:33 10° WNW 19:33:45 59° W 19:33:45 59° W
Unknown 3.8 19:30:31 10° WNW 19:34:18 65° NNW 19:34:18 65° NNW
Unknown 3.9 19:32:10 10° WNW 19:35:53 64° NW 19:35:53 64° NW
Unknown 3.9 19:34:03 10° WNW 19:37:42 63° NW 19:37:42 63° NW
SL-08 R/B 4.3 19:32:48 10° N 19:38:57 74° ENE 19:40:27 52° SE
Unknown 4.0 19:35:30 10° WNW 19:39:05 61° NW 19:39:05 61° NW
Unknown 4.1 19:37:08 10° WNW 19:40:39 59° NW 19:40:39 59° NW
Unknown 4.2 19:40:31 10° WNW 19:43:54 55° NW 19:43:54 55° NW
Cosmos 1300 3.9 19:41:39 10° SSW 19:45:18 42° WNW 19:48:58 10° N
Unknown 4.3 19:42:09 10° WNW 19:45:28 54° NW 19:45:28 54° NW
Unknown 4.3 19:43:50 10° WNW 19:47:05 52° WNW 19:47:05 52° WNW
SJ 16-02 1.7 19:43:56 10° NNW 19:47:34 59° NW 19:47:34 59° NW
Unknown 4.4 19:45:29 10° WNW 19:48:39 50° WNW 19:48:39 50° WNW
USA 238 DEB 3.7 19:45:15 10° SW 19:52:01 79° NW 19:55:39 31° NE
USA 238 3.7 19:45:22 10° SW 19:52:07 79° NW 19:55:43 31° NE
Cosmos 2227 Rocket 4.4 19:55:30 10° N 19:57:58 13° NNE 19:58:17 13° NNE
Cosmos 2061 Rocket 4.2 19:54:44 10° NNW 20:00:57 67° W 20:04:07 30° SSW
Cosmos 2082 Rocket 4.1 19:56:38 10° NW 20:01:20 27° WSW 20:05:59 10° SSW
CZ-2C R/B 3.4 20:03:09 63° NNE 20:03:09 63° NNE 20:08:08 10° N
Cosmos 2297 Rocket 4.3 20:00:24 10° N 20:03:06 13° NNE 20:03:06 13° NNE
ATLAS CENTAUR R/B 3.3 20:01:00 10° NNW 20:03:29 26° N 20:03:29 26° N
NOSS 3-2 (A) 3.7 20:09:49 10° SW 20:15:45 68° NW 20:17:15 52° NNE
Cosmos 1937 Rocket 4.2 20:11:53 10° NNW 20:16:42 49° W 20:16:42 49° W
Resurs 01 Rocket 3.7 20:20:03 22° N 20:20:03 22° N 20:21:37 10° NNW
ADEOS Rocket 3.6 20:31:33 10° NNE 20:39:17 73° WNW 20:46:27 10° SSW
ATLAS 5 CENTAUR R/B 4.0 20:35:49 10° NW 20:39:11 21° N 20:39:11 21° N
NOSS 3-2 (C) 4.0 20:34:56 10° SW 20:39:28 53° W 20:39:28 53° W
Cosmos 2278 Rocket 4.3 20:41:15 10° W 20:45:41 23° NW 20:50:09 10° NNE
H-2A R/B 3.6 20:54:44 32° W 20:54:44 32° W 20:59:14 10° NNW
ATLAS 3B R/B 4.1 21:04:16 10° WSW 21:07:05 27° WSW 21:07:05 27° WSW
CENTAUR R/B 4.4 21:13:34 10° WSW 21:15:22 21° WSW 21:15:22 21° WSW
